Theta_e
319 316 314 315 316 319 320 319 320 324 322 321 321 342 341 340 340 345 344 345 345 345 342 344 343 342 341 341 343 344 343 347 346 346 344 342 342 337 335 330 328 329 329 329
319 316 317 319 319 320 319 320 321 326 325 325 326 326 335 336 333 342 342 345 344 342 340 340 338 337 337 337 338 339 336 340 339 340 339 336 337 337 331 329 327 321 322 323
318 320 322 321 320 321 320 322 321 323 328 327 328 326 322 334 332 330 337 342 342 341 339 337 336 335 335 334 334 334 331 330 335 334 332 332 327 328 324 323 325 321 319 319
320 322 322 321 322 321 321 321 323 322 327 328 327 323 322 330 334 331 328 342 341 339 337 334 333 333 333 332 330 330 329 327 327 326 332 328 324 323 322 322 324 320 318 317
323 322 323 324 324 323 320 321 326 323 325 325 323 323 324 327 329 331 328 340 341 339 336 333 330 331 330 330 330 328 327 326 325 323 324 322 322 321 322 323 323 320 320 318
323 323 324 323 323 323 324 324 326 324 321 322 321 324 323 322 330 333 333 341 341 337 334 332 330 328 328 328 327 325 323 323 323 323 322 324 324 321 320 320 324 322 320 320
324 323 325 324 325 324 322 321 322 324 323 323 321 323 322 334 333 333 335 338 339 336 333 331 327 325 327 327 327 326 326 325 324 322 321 319 318 321 323 320 320 321 321 321
324 323 323 324 324 325 324 321 320 326 327 326 325 329 332 329 328 327 330 333 336 334 332 329 326 325 325 327 327 326 326 326 325 324 322 322 323 319 319 322 321 320 320 322
325 326 326 324 324 324 322 324 321 327 327 324 325 331 333 331 330 330 329 328 336 333 330 328 326 325 324 325 326 327 327 326 325 324 324 324 323 322 321 322 322 322 322 321
325 327 328 325 324 324 324 324 322 324 328 330 327 328 336 334 332 330 329 329 335 332 329 328 327 325 325 325 326 327 327 326 325 325 324 323 322 322 323 323 323 323 323 323
324 327 328 329 326 326 325 323 322 322 326 328 330 331 331 333 333 331 330 329 331 330 329 328 327 327 325 324 325 326 326 325 325 325 325 325 323 323 322 323 323 323 322 322
325 327 327 329 327 327 325 325 323 324 325 327 326 327 330 327 328 331 331 332 328 327 326 326 326 327 326 324 324 326 326 326 325 325 324 324 323 323 324 323 321 321 320 319
332 329 330 328 325 326 328 328 327 329 330 328 330 329 330 330 327 329 329 331 331 328 326 324 327 327 327 327 325 325 326 327 326 325 325 324 324 322 321 321 320 316 314 313
331 331 330 326 327 328 331 330 329 329 330 327 326 325 326 328 328 326 325 326 326 328 327 327 327 329 328 329 327 326 325 325 326 325 324 323 321 320 318 316 315 314 314 314
326 329 332 331 330 328 327 327 326 328 330 332 328 326 326 326 327 327 325 325 328 330 330 331 330 329 329 327 326 325 324 323 322 322 321 320 318 316 314 313 314 314 313 310
332 329 329 331 330 328 327 326 326 325 326 329 329 326 324 325 327 328 326 327 327 334 333 332 331 330 330 327 325 325 323 322 321 320 318 318 317 314 314 313 312 310 309 310
333 330 332 332 331 329 329 327 326 326 325 327 326 324 325 324 326 325 327 328 333 331 329 328 327 328 327 326 326 326 324 322 320 319 316 315 313 312 311 309 307 306 306 306
333 335 333 334 335 336 328 327 327 327 327 327 326 327 324 323 325 324 325 330 330 328 327 326 325 325 324 325 323 322 321 319 317 316 313 312 310 309 307 307 306 305 306 307
328 335 336 335 335 332 331 328 327 327 325 327 326 327 325 324 325 329 328 327 327 326 325 324 322 322 323 322 320 319 318 317 315 312 311 309 308 308 307 307 306 306 307 307
326 330 333 334 337 337 331 329 328 326 327 326 326 327 324 324 323 328 327 327 326 324 323 322 321 320 319 318 318 317 314 312 312 310 309 308 306 307 306 306 306 308 307 306
325 328 328 329 333 332 330 328 326 328 327 328 326 325 325 325 325 326 326 325 324 323 322 321 320 319 318 317 316 314 313 312 310 309 308 307 306 307 306 305 306 307 304 300
324 328 333 332 332 334 331 328 331 329 330 326 324 327 329 328 328 327 325 324 323 322 320 319 319 317 316 315 315 312 311 310 309 308 307 306 306 306 305 304 304 302 300 300
328 330 333 331 330 328 328 327 325 326 327 329 325 326 328 328 328 326 325 323 321 321 319 318 316 315 314 313 313 312 309 309 309 308 307 307 305 305 305 304 302 302 300 300
327 329 333 331 330 330 329 328 326 327 325 325 327 327 327 327 326 326 324 322 321 318 317 316 315 314 312 311 311 310 309 308 308 308 307 307 305 305 304 304 303 302 301 300
324 324 329 331 330 331 329 326 325 326 325 327 326 326 327 326 326 324 322 320 318 317 317 315 314 312 311 310 309 308 308 307 307 307 307 306 305 305 305 304 304 303 302 300
320 323 329 330 328 328 327 326 325 324 325 327 327 326 327 326 325 322 320 319 317 316 315 314 313 312 311 309 309 308 307 306 307 307 306 306 305 305 305 305 305 304 303 301
Wind_Speed
8 2 6 13 11 11 7 7 9 2 6 7 8 17 17 15 14 17 16 16 16 14 17 20 19 16 14 12 11 12 10 11 12 13 15 11 16 16 16 17 16 15 15 14
6 9 13 11 11 11 10 8 6 3 7 6 5 3 10 14 10 19 17 19 18 16 12 19 20 17 13 11 10 10 14 14 11 14 13 15 17 18 19 17 16 16 15 16
9 12 13 13 10 10 6 3 7 3 4 4 4 4 7 11 12 10 15 17 21 21 16 12 19 20 16 12 10 9 12 15 13 14 14 19 23 20 16 14 13 15 17 16
8 16 11 5 3 5 5 7 8 10 2 2 5 4 7 9 13 11 9 17 18 18 15 11 19 21 19 15 11 10 11 13 15 15 15 14 15 18 13 12 11 12 16 16
10 8 5 1 5 7 9 7 4 9 1 4 9 3 9 5 7 10 10 17 20 20 19 16 20 26 23 19 14 10 11 13 14 15 16 18 18 14 12 9 13 12 14 16
14 7 4 7 7 4 4 6 7 6 4 4 8 4 11 6 9 8 7 20 21 21 18 18 27 30 27 23 16 13 14 13 13 13 14 17 18 16 13 13 14 11 10 12
9 7 3 2 3 4 8 7 4 4 3 7 10 4 16 1 9 5 12 18 21 21 19 16 18 24 28 28 21 16 14 13 12 13 14 15 14 13 12 10 10 11 8 9
5 8 9 8 7 5 4 8 5 5 3 4 8 5 2 9 10 9 7 9 18 18 18 18 22 25 28 31 25 19 16 14 12 12 13 12 9 8 9 9 8 5 7 7
3 7 13 11 6 4 6 3 9 1 4 4 3 3 7 9 9 9 9 10 11 14 15 17 23 27 30 32 28 24 19 15 12 11 9 7 8 12 8 7 7 6 5 4
7 3 5 5 5 2 3 1 5 4 1 4 5 4 4 6 7 8 7 6 12 11 13 16 21 26 30 33 29 24 22 19 16 12 9 8 6 6 5 4 4 5 6 7
4 6 9 5 2 4 4 2 1 4 4 3 1 5 6 6 8 10 9 9 10 11 14 16 21 28 34 37 32 28 27 22 20 15 13 13 8 9 7 3 2 4 6 9
9 6 4 7 6 4 9 10 8 5 7 3 5 6 3 8 9 9 8 9 10 10 10 13 19 27 30 30 32 29 27 25 23 21 20 16 13 10 9 4 2 5 9 10
3 2 2 8 7 6 3 4 5 4 4 5 4 6 4 6 6 8 9 8 9 10 9 9 19 21 24 24 26 24 23 22 25 23 20 17 14 13 11 7 6 9 12 15
7 2 6 7 8 6 4 6 3 2 2 5 7 8 7 6 8 8 9 8 9 8 9 10 12 16 17 24 30 23 19 17 23 18 19 20 16 12 9 9 10 13 13 14
6 4 2 5 7 10 13 11 10 12 10 9 10 9 8 7 8 10 10 8 9 11 9 14 13 14 24 27 29 27 20 18 26 25 20 17 12 12 12 11 9 11 10 11
0 4 6 5 8 12 17 17 15 19 13 11 16 10 10 8 4 4 9 9 10 17 19 15 14 19 21 25 26 27 24 20 22 22 19 17 14 10 8 10 9 9 10 10
3 4 2 4 7 11 17 13 15 17 11 3 4 5 4 7 2 8 8 10 19 18 18 16 15 20 24 25 28 28 24 23 23 21 16 14 12 15 13 11 10 12 14 14
5 5 5 4 4 14 5 4 7 8 10 5 4 1 2 2 4 8 9 18 20 20 18 15 20 24 27 28 27 25 20 21 22 19 15 13 15 14 13 12 12 14 16 15
6 5 4 6 8 17 10 4 6 4 14 6 2 2 5 8 7 7 15 18 19 18 19 23 31 33 29 29 26 22 18 23 19 18 16 17 15 13 11 10 11 12 12 12
9 5 4 3 6 20 2 7 7 5 12 5 5 4 7 7 5 4 15 18 14 22 26 27 30 34 31 23 22 18 23 22 18 20 19 15 12 8 9 10 9 9 11 10
4 6 10 10 7 13 4 0 4 8 7 3 4 2 2 4 5 10 17 15 24 26 27 30 29 27 26 20 17 21 19 19 20 18 14 11 10 9 9 7 7 8 10 12
9 4 6 2 3 15 2 5 5 3 8 4 6 5 9 16 20 19 18 17 18 23 26 29 26 26 21 17 15 21 16 19 19 16 11 10 9 6 6 7 8 9 12 12
11 6 5 10 9 8 5 6 8 7 4 9 5 8 16 19 19 19 16 16 16 24 24 26 29 26 20 19 19 18 17 15 16 13 10 7 8 7 3 0 3 4 7 8
6 6 1 3 5 7 9 7 6 2 3 8 21 5 17 20 21 19 17 17 15 25 27 27 24 25 21 18 17 15 13 12 12 11 7 9 8 6 4 2 3 2 2 3
4 7 5 4 4 4 8 9 2 4 4 8 9 17 3 19 18 19 17 15 22 25 27 27 27 26 20 19 15 13 12 10 11 11 8 6 7 5 2 4 5 7 4 1
4 3 2 4 2 6 6 2 2 3 3 5 8 8 10 12 17 17 13 20 24 22 24 26 28 26 23 20 14 15 14 11 10 9 6 3 9 5 5 4 7 6 9 9
Wind_Direction
255 195 238 241 246 243 269 279 270 356 116 135 153 146 172 174 159 161 164 152 152 148 136 122 117 119 112 108 112 110 102 117 123 123 109 102 102 98 84 70 62 52 47 44
298 224 237 237 250 254 267 276 291 39 117 107 95 135 197 177 178 172 168 161 148 138 132 129 130 128 124 117 114 110 90 110 112 117 116 104 106 119 98 83 67 53 54 46
215 244 228 242 258 261 270 298 298 240 126 94 118 311 264 188 184 170 173 159 148 149 144 139 135 133 132 128 121 121 101 100 117 113 119 114 108 105 93 77 72 62 54 48
233 246 263 152 316 347 321 292 317 288 62 210 119 259 275 199 193 182 168 148 147 143 141 140 140 143 142 138 133 130 123 110 116 116 125 126 120 98 93 90 112 82 69 58
261 251 174 152 263 262 250 255 328 256 178 55 305 86 262 245 189 190 174 145 150 151 148 150 148 149 145 144 148 143 136 129 123 125 125 125 118 117 108 96 137 103 74 53
288 276 217 182 235 223 78 42 358 18 61 6 254 195 278 247 195 155 153 145 155 148 149 149 150 149 149 149 151 150 136 128 132 130 132 127 125 120 109 107 119 118 74 45
286 263 294 297 2 112 84 57 353 348 355 229 263 238 237 175 104 149 165 149 152 150 148 146 147 149 151 151 153 158 152 137 129 125 123 120 117 120 106 112 96 92 75 47
266 292 197 201 177 182 182 150 161 222 225 257 336 291 289 88 63 57 65 146 141 146 152 150 150 157 153 156 159 165 165 156 149 136 123 115 130 125 117 110 84 79 76 74
277 290 321 188 135 150 263 176 211 181 274 39 247 21 27 73 80 74 69 93 138 149 152 151 153 160 156 162 164 166 169 165 156 145 139 128 99 131 108 92 80 65 17 351
231 313 316 114 122 182 107 248 22 357 162 280 283 285 178 115 130 121 125 134 147 150 151 154 157 163 162 165 166 167 169 168 164 159 158 153 142 122 112 93 30 4 7 356
152 119 285 14 133 167 324 284 241 152 147 175 315 280 200 161 167 162 176 172 155 150 159 160 167 164 157 162 164 166 168 171 174 175 176 174 165 167 151 123 60 3 342 347
185 152 221 228 287 308 204 205 179 138 274 226 180 258 146 155 172 158 176 160 166 161 164 167 160 152 159 161 166 170 175 179 180 182 178 178 176 170 155 135 55 6 9 360
7 164 131 330 340 331 240 231 203 163 130 199 195 256 225 170 137 163 175 179 175 173 171 153 154 159 160 163 165 165 172 187 194 189 184 169 147 127 114 101 49 14 10 14
76 30 152 192 211 229 275 266 297 196 152 235 232 249 273 238 186 203 159 152 138 172 129 120 111 109 104 130 141 144 161 176 172 169 151 130 121 110 78 65 43 27 19 8
118 186 270 266 271 277 274 272 268 238 219 233 255 245 233 241 220 206 183 154 131 141 129 102 107 110 114 110 117 123 121 138 130 126 121 106 100 91 72 51 33 29 23 11
256 230 199 257 268 273 274 283 284 283 278 227 235 246 243 246 261 192 174 158 111 102 101 99 104 116 118 120 125 131 134 127 117 112 109 107 114 92 79 68 57 45 28 15
201 166 179 249 234 263 257 235 252 272 278 251 265 247 58 21 150 147 118 109 115 113 109 107 103 101 118 122 127 126 125 126 121 116 114 116 112 97 86 75 50 32 13 359
209 187 176 220 234 253 211 217 275 269 280 240 257 247 71 53 109 116 110 120 119 120 119 114 107 110 109 120 117 125 134 133 128 121 112 105 101 86 68 59 38 17 3 2
185 193 214 215 225 256 262 279 236 232 282 249 181 66 92 119 97 28 123 126 130 129 128 124 120 120 120 126 133 132 126 123 127 121 111 105 93 89 80 55 24 12 360 356
268 187 191 239 218 248 89 239 290 347 277 197 219 212 175 137 145 184 128 124 118 118 121 120 118 117 112 114 123 121 123 120 112 115 108 100 82 69 67 41 20 17 18 15
290 268 242 249 258 261 160 136 331 260 252 137 103 90 310 169 182 144 122 113 118 120 118 118 116 115 117 116 112 116 121 120 120 115 105 94 81 80 70 32 31 25 34 19
243 227 227 51 336 263 5 43 159 205 303 188 155 125 111 121 124 129 127 125 123 118 118 117 110 112 113 120 128 119 106 126 120 120 116 101 94 88 61 56 42 82 30 36
258 201 207 194 236 223 265 220 253 77 46 314 199 140 135 135 137 136 130 125 122 117 121 120 120 120 112 113 124 117 119 121 128 124 125 128 115 98 91 140 75 73 43 43
324 16 236 97 320 318 322 287 46 60 116 23 342 155 154 145 143 136 132 131 125 123 126 129 129 128 131 133 136 135 128 125 132 145 148 154 133 121 89 113 21 187 40 46
251 358 321 270 303 358 333 352 328 2 35 33 54 351 182 138 145 143 137 136 136 137 138 144 136 143 141 142 143 149 152 148 139 151 168 163 166 149 207 222 249 274 262 245
170 220 195 229 271 185 231 218 116 261 258 180 114 78 310 185 143 136 135 142 140 136 137 135 140 149 160 159 150 148 148 150 153 167 165 121 148 171 239 258 265 278 267 250